DELTA 1 DEB, 7184

Orbit data source: Space-Track

DELTA 1 DEB, 7184 is space debris in SSO originally from a launch on Tue, 06 Nov 1973 UTC launched from the Air Force Western Test Range (AFWTR). Debris objects in space refer to the collection of defunct objects orbiting the Earth. Examples of debris include non-operational satellites, rocket bodies, and fragments generated from explosions, collisions, or faulty payload assembly.

Loading next visibility...
Identifier
7184, 1973-086EV
Orbit
SSO
Country
Flag of USUS
Related business
Manufacturer
Unknown
Mission
Spacecraft
Bus & Motor
Unknown
Mass
Unknown
Launch date (UTC)
1973-11-06 (53 years ago)
Launch vehicle
Unknown
Launch site
Air Force Western Test Range (AFWTR)
Object type
Payload
Rocket body
Debris
Shape & HBR
Unknown shape, 0.1 m
Radar Cross Section
Medium (>0.1 m² and <1 m²)

Expand to show TLE details & history
Last TLE update: 2 days ago

TLE from 2 days ago
0 DELTA 1 DEB
1  7184U 73086EV  26171.41445941  .00001265  00000-0  37395-2 0  9996
2  7184 102.2975 153.7164 0186826 189.8491 326.8265 13.05279674483759
Epoch: 2026-06-20T09:56Z
TLE epoch observation values (Epoch: 2026-06-20T09:56:49.293Z)
Latitude
23.94668°
Longitude
-78.59133°
Altitude
1,125.752 km
Speed
7.348 km/s
True Right ascension
22h 36m 58s
True Declination
23° 49' 32"
Sunlit
Object was in daylight at epoch
Visualization orbit readout
Latitude
Unknown
Longitude
Unknown
Altitude
Unknown
Speed
Unknown
Apparent Right ascension
Unknown
Apparent Declination
Unknown
Sunlit
N/A
Visualization observer readout
Local Sidereal Time
07:09:51
Azimuth
Unknown
Elevation
Unknown
Doppler factor
Unknown
Orbital elements
Apogee altitude
1,381.289 km
Perigee altitude
1,096.674 km
Semi-major axis
7,617.118 km
Eccentricity
0.01868
Inclination
102.2975°
RAAN
153.7164°
Arg. of periapsis
189.8491°
True anomaly
325.63182°
Mean anomaly
326.8265°
Eccentric anomaly
326.23151°
Mean motion
3.2648 °/min
Orbital period
110.27 mins
BSTAR
0.0037395
Loading maneuver chart data...
Computing Atmospheric mass density...
Loading historical data...
Loading historical data...
Loading historical data...
Loading historical data...
Loading historical data...
Loading historical data...
Loading historical data...

Documentation

Showing up to 5 results
|